Lid_Strength_Index
3 2 3 3 2 2 2 2 2 2 2 2 2 2 2 2 2 5 8 6 0 1 -0 1 1 2 2 5 5 6 10 11 12 12 12 9 10 8 8 8 8 7 7 5 3
3 3 3 3 2 2 2 2 2 2 2 2 2 2 2 2 5 8 5 1 1 1 2 4 5 3 5 5 5 8 10 10 9 8 9 9 9 9 9 9 9 8 6 4 2
3 3 3 3 3 3 2 2 2 2 2 2 2 2 2 3 9 8 1 1 2 3 3 3 3 4 7 6 7 8 10 8 8 7 7 8 9 9 9 10 8 9 7 4 3
3 3 3 3 3 2 2 2 2 2 2 2 2 2 2 5 15 6 1 1 2 4 5 6 5 6 8 8 7 9 8 8 7 6 8 9 7 9 9 9 7 7 7 4 4
4 4 4 4 3 3 3 2 3 2 2 2 2 2 4 9 9 4 2 3 4 4 6 7 9 7 9 7 7 8 9 8 7 7 8 7 8 9 9 8 8 8 7 5 4
4 4 4 4 4 3 3 3 3 2 2 2 2 3 7 12 6 4 4 4 5 5 6 6 8 7 8 8 9 7 7 7 7 7 7 9 9 8 8 7 9 9 8 7 5
4 4 4 4 4 4 3 3 3 3 3 3 3 5 9 10 5 5 4 5 4 6 8 6 6 8 8 9 7 7 10 8 8 7 8 7 10 10 7 6 8 9 9 8 6
4 4 4 4 4 4 3 3 3 3 3 3 3 7 12 6 4 4 4 6 5 5 6 4 4 7 8 8 9 10 10 13 9 8 7 8 13 9 7 6 7 8 8 8 8
4 4 4 4 4 4 3 3 4 4 5 4 7 9 12 5 6 6 5 7 6 5 5 5 6 8 9 12 13 11 15 13 11 7 8 9 12 9 6 7 7 7 7 8 7
5 4 4 4 3 3 3 4 5 6 6 6 7 11 9 10 7 5 3 4 5 5 6 6 7 10 10 12 17 15 14 14 14 10 9 10 10 9 7 7 7 6 6 7 8
5 4 4 4 3 3 5 7 10 11 9 11 11 11 9 6 3 4 2 4 3 5 8 7 10 12 11 10 11 12 13 14 11 10 11 11 11 9 8 7 7 6 6 6 6
5 4 4 4 3 4 6 9 10 8 14 9 9 8 6 4 7 4 1 6 6 9 7 9 12 9 8 9 12 12 14 14 12 11 10 11 11 10 8 8 7 7 7 6 6
4 4 4 4 4 6 7 9 6 6 12 11 8 7 5 3 7 7 5 6 8 10 10 12 10 7 9 11 12 12 13 14 15 12 11 12 13 10 9 8 7 6 6 6 6
5 4 4 4 7 7 9 6 5 5 16 14 10 7 4 5 8 5 5 6 8 10 9 10 8 9 10 12 11 15 11 12 13 14 17 10 19 11 10 9 8 7 6 6 6
5 5 4 4 7 9 7 6 5 8 23 12 9 3 4 8 7 7 4 6 10 10 10 12 10 11 12 11 10 13 9 12 12 14 15 14 17 13 9 10 9 8 7 6 5
5 4 4 6 7 7 6 7 8 17 23 14 8 9 9 8 8 7 7 5 7 10 10 11 8 10 10 9 10 9 11 12 12 13 19 17 15 14 12 10 9 8 7 6 6
5 4 5 6 9 6 7 9 17 21 14 14 12 9 10 11 10 9 10 11 13 15 14 11 11 9 9 12 10 11 14 18 20 20 20 15 16 14 10 8 8 8 7 6 5
5 5 7 7 6 6 8 14 22 20 17 10 10 11 12 10 10 10 11 12 9 11 13 16 17 12 9 11 13 13 14 18 22 20 18 14 17 15 10 7 7 7 6 6 6
5 7 8 7 6 6 11 19 18 18 13 12 11 14 14 11 11 12 12 12 10 10 15 16 16 10 10 10 11 13 16 12 16 16 18 15 14 12 9 9 8 8 7 8 8
8 9 9 7 7 8 13 17 17 12 11 10 15 14 16 14 13 13 13 10 10 8 8 12 18 11 10 9 9 12 10 16 16 21 21 18 17 16 15 15 12 12 11 10 10
8 12 9 7 8 11 17 17 15 10 9 12 13 14 13 14 13 14 13 10 8 9 9 11 14 14 12 13 15 13 14 14 13 14 19 20 19 16 16 16 16 13 12 12 11
10 15 9 8 13 17 16 15 12 11 8 10 10 11 13 12 14 13 13 11 8 9 12 11 13 16 15 11 10 12 13 13 17 17 15 17 18 14 16 15 15 14 12 12 12
12 12 9 9 17 16 15 14 12 12 10 12 12 10 10 13 15 13 12 9 9 10 12 11 13 18 17 14 11 15 15 15 15 13 16 18 17 14 15 16 15 15 15 13 12
12 16 13 12 13 15 16 15 15 11 11 10 10 10 12 14 12 15 14 11 9 10 8 8 13 16 20 18 15 17 17 15 15 17 16 17 16 17 16 17 17 16 16 15 14
11 15 14 16 15 14 14 14 15 15 11 10 11 12 13 16 15 15 13 12 10 9 9 10 15 15 15 15 14 16 18 18 18 17 17 18 19 18 16 17 17 16 16 16 16
12 14 15 14 14 15 15 15 14 12 12 13 13 11 12 14 14 15 14 13 13 11 11 11 15 15 17 14 14 17 18 18 18 18 18 17 18 16 15 15 16 17 17 17 17
8 9 11 14 15 16 15 15 13 11 10 9 10 11 13 12 10 10 10 11 11 12 13 13 14 16 19 15 15 18 18 18 19 19 18 21 18 16 17 16 17 17 17 17 17